| time (UTC) | temp F | wind direction | speed MPH | gust MPH | rain 1hr in | rain 24hr in | rain mn in | humidity % | barometer mb |
| 20260507113033 | 66 | 55 | 7.0 | 9.0 | 0.00 | 0.18 | 0.02 | 69 | 1012.6 |
| 20260507111513 | 65 | 65 | 7.0 | 9.0 | 0.00 | 0.18 | 0.02 | 70 | 1012.7 |
| 20260507110015 | 66 | 62 | 5.0 | 9.0 | 0.00 | 0.18 | 0.02 | 70 | 1012.8 |
| 20260507104513 | 65 | 60 | 6.0 | 9.0 | 0.00 | 0.18 | 0.02 | 64 | 1012.9 |
| 20260507103010 | 65 | 53 | 6.0 | 7.0 | 0.00 | 0.18 | 0.02 | 68 | 1013.0 |
| 20260507101514 | 65 | 47 | 8.0 | 9.0 | 0.00 | 0.18 | 0.02 | 68 | 1013.1 |
| 20260507100006 | 65 | 56 | 6.0 | 7.0 | 0.00 | 0.18 | 0.02 | 69 | 1013.2 |
| 20260507094506 | 65 | 54 | 6.0 | 9.0 | 0.00 | 0.18 | 0.02 | 65 | 1013.2 |
| 20260507093003 | 65 | 58 | 4.0 | 6.0 | 0.00 | 0.18 | 0.02 | 64 | 1013.1 |
| 20260507091635 | 65 | 87 | 5.0 | 8.0 | 0.00 | 0.18 | 0.02 | 65 | 1013.2 |
| 20260507090057 | 65 | 79 | 4.0 | 7.0 | 0.00 | 0.18 | 0.02 | 63 | 1013.0 |
| 20260507084609 | 65 | 49 | 3.0 | 5.0 | 0.00 | 0.18 | 0.02 | 63 | 1012.8 |
| 20260507083052 | 65 | 342 | 0.0 | 5.0 | 0.00 | 0.19 | 0.02 | 61 | 1012.8 |
| 20260507081532 | 65 | 256 | 4.0 | 7.0 | 0.00 | 0.19 | 0.02 | 61 | 1012.7 |
| 20260507080016 | 65 | 328 | 3.0 | 5.0 | 0.00 | 0.19 | 0.02 | 58 | 1012.6 |
| 20260507074550 | 65 | 239 | 2.0 | 5.0 | 0.00 | 0.19 | 0.02 | 56 | 1012.6 |
| 20260507073044 | 64 | 239 | 1.0 | 4.0 | 0.00 | 0.19 | 0.02 | 60 | 1012.6 |
| 20260507071511 | 63 | 238 | 3.0 | 7.0 | 0.00 | 0.19 | 0.02 | 63 | 1012.6 |
| 20260507070013 | 63 | 233 | 4.0 | 6.0 | 0.00 | 0.19 | 0.02 | 65 | 1012.5 |
| 20260507064539 | 62 | 252 | 6.0 | 9.0 | 0.00 | 0.19 | 0.02 | 66 | 1012.4 |
| 20260507063041 | 62 | 248 | 6.0 | 10.0 | 0.00 | 0.19 | 0.02 | 65 | 1012.3 |
| 20260507061536 | 62 | 252 | 6.0 | 11.0 | 0.00 | 0.19 | 0.02 | 64 | 1012.2 |
| 20260507060033 | 62 | 245 | 7.0 | 11.0 | 0.00 | 0.19 | 0.02 | 63 | 1012.1 |
| 20260507054531 | 62 | 255 | 6.0 | 11.0 | 0.00 | 0.19 | 0.02 | 63 | 1012.1 |
| 20260507053030 | 61 | 222 | 4.0 | 8.0 | 0.00 | 0.23 | 0.02 | 66 | 1012.0 |
| 20260507051527 | 60 | 222 | 3.0 | 5.0 | 0.00 | 0.23 | 0.02 | 68 | 1011.8 |
| 20260507050029 | 60 | 221 | 2.0 | 3.0 | 0.00 | 0.23 | 0.02 | 68 | 1011.7 |
| 20260507044522 | 60 | 220 | 3.0 | 5.0 | 0.00 | 0.23 | 0.02 | 67 | 1011.3 |
| 20260507043026 | 60 | 214 | 3.0 | 8.0 | 0.00 | 0.32 | 0.02 | 67 | 1011.2 |
| 20260507041555 | 60 | 227 | 4.0 | 8.0 | 0.00 | 0.32 | 0.02 | 67 | 1011.1 |
| 20260507040050 | 60 | 211 | 4.0 | 6.0 | 0.00 | 0.32 | 0.02 | 68 | 1011.0 |
| 20260507034547 | 60 | 216 | 4.0 | 7.0 | 0.00 | 0.32 | 0.02 | 67 | 1011.0 |
| 20260507033045 | 60 | 227 | 5.0 | 8.0 | 0.00 | 0.32 | 0.02 | 67 | 1010.9 |
| 20260507031547 | 61 | 235 | 5.0 | 10.0 | 0.00 | 0.32 | 0.02 | 65 | 1010.8 |
| 20260507030043 | 61 | 231 | 3.0 | 9.0 | 0.00 | 0.32 | 0.02 | 64 | 1010.8 |
| 20260507024515 | 61 | 211 | 3.0 | 8.0 | 0.00 | 0.32 | 0.02 | 64 | 1010.7 |
| 20260507023012 | 62 | 217 | 6.0 | 11.0 | 0.00 | 0.32 | 0.02 | 63 | 1010.8 |
| 20260507021510 | 62 | 203 | 6.0 | 14.0 | 0.00 | 0.32 | 0.02 | 62 | 1010.9 |
| 20260507020009 | 62 | 218 | 6.0 | 14.0 | 0.00 | 0.32 | 0.02 | 63 | 1010.9 |
| 20260507014507 | 62 | 214 | 7.0 | 10.0 | 0.00 | 0.32 | 0.02 | 63 | 1010.8 |
| 20260507013006 | 62 | 226 | 6.0 | 10.0 | 0.00 | 0.34 | 0.02 | 66 | 1010.7 |
| 20260507011544 | 62 | 222 | 8.0 | 12.0 | 0.00 | 0.34 | 0.02 | 66 | 1010.5 |
| 20260507010037 | 62 | 216 | 6.0 | 14.0 | 0.00 | 0.34 | 0.02 | 65 | 1010.4 |
| 20260507004532 | 62 | 211 | 8.0 | 14.0 | 0.00 | 0.34 | 0.02 | 66 | 1010.5 |
| 20260507003031 | 62 | 220 | 9.0 | 14.0 | 0.00 | 0.34 | 0.02 | 66 | 1010.4 |
| 20260507001602 | 62 | 195 | 7.0 | 14.0 | 0.01 | 0.34 | 0.02 | 66 | 1010.5 |
| 20260507000035 | 62 | 220 | 9.0 | 17.0 | 0.02 | 0.34 | 0.02 | 67 | 1010.5 |
| 20260506234525 | 62 | 200 | 11.0 | 17.0 | 0.02 | 0.34 | 0.02 | 68 | 1010.8 |
| 20260506233023 | 61 | 195 | 9.0 | 14.0 | 0.02 | 0.34 | 0.02 | 72 | 1010.9 |
| 20260506231520 | 61 | 233 | 7.0 | 14.0 | 0.01 | 0.33 | 0.02 | 72 | 1011.1 |
| 20260506230017 | 62 | 224 | 8.0 | 12.0 | 0.00 | 0.32 | 0.01 | 70 | 1011.0 |
| 20260506224516 | 62 | 225 | 7.0 | 14.0 | 0.00 | 0.32 | 0.01 | 70 | 1011.1 |
| 20260506223012 | 62 | 223 | 6.0 | 16.0 | 0.01 | 0.32 | 0.01 | 70 | 1011.0 |
| 20260506221511 | 62 | 226 | 7.0 | 12.0 | 0.01 | 0.32 | 0.01 | 72 | 1011.0 |
| 20260506220010 | 63 | 237 | 7.0 | 11.0 | 0.01 | 0.32 | 0.01 | 71 | 1010.9 |
| 20260506214506 | 62 | 226 | 9.0 | 12.0 | 0.01 | 0.32 | 0.01 | 71 | 1010.9 |
| 20260506213002 | 63 | 226 | 14.0 | 20.0 | 0.00 | 0.31 | 0.00 | 66 | 1010.8 |
| 20260506211559 | 65 | 226 | 7.0 | 14.0 | 0.00 | 0.31 | 0.00 | 66 | 1010.7 |
| 20260506210100 | 65 | 218 | 7.0 | 18.0 | 0.00 | 0.31 | 0.00 | 65 | 1010.5 |
| 20260506204525 | 64 | 213 | 14.0 | 19.0 | 0.00 | 0.31 | 0.00 | 67 | 1010.5 |
| 20260506203023 | 64 | 224 | 8.0 | 13.0 | 0.00 | 0.31 | 0.31 | 70 | 1010.5 |
| 20260506201623 | 64 | 204 | 7.0 | 17.0 | 0.01 | 0.31 | 0.31 | 68 | 1010.4 |
| 20260506200056 | 64 | 214 | 10.0 | 15.0 | 0.01 | 0.31 | 0.31 | 71 | 1010.2 |
| 20260506194554 | 63 | 197 | 8.0 | 15.0 | 0.01 | 0.31 | 0.31 | 74 | 1010.2 |
| 20260506193054 | 64 | 184 | 5.0 | 13.0 | 0.01 | 0.31 | 0.31 | 72 | 1010.0 |
| 20260506191549 | 65 | 241 | 7.0 | 13.0 | 0.00 | 0.31 | 0.31 | 70 | 1009.9 |
| 20260506190052 | 64 | 221 | 7.0 | 14.0 | 0.05 | 0.31 | 0.31 | 72 | 1009.6 |
| 20260506184550 | 64 | 208 | 10.0 | 17.0 | 0.09 | 0.31 | 0.31 | 72 | 1009.4 |
| 20260506183046 | 63 | 173 | 3.0 | 9.0 | 0.09 | 0.31 | 0.31 | 75 | 1009.1 |
| 20260506181553 | 63 | 210 | 6.0 | 16.0 | 0.09 | 0.31 | 0.31 | 76 | 1009.5 |
| 20260506180045 | 63 | 201 | 11.0 | 21.0 | 0.05 | 0.26 | 0.26 | 76 | 1009.5 |
| 20260506174545 | 64 | 231 | 11.0 | 19.0 | 0.01 | 0.22 | 0.22 | 74 | 1009.0 |
| 20260506173046 | 65 | 254 | 9.0 | 13.0 | 0.00 | 0.21 | 0.21 | 72 | 1008.6 |
| 20260506171542 | 66 | 233 | 9.0 | 16.0 | 0.00 | 0.21 | 0.21 | 67 | 1008.5 |
| 20260506170047 | 67 | 219 | 7.0 | 12.0 | 0.00 | 0.21 | 0.21 | 64 | 1008.3 |
| 20260506164555 | 66 | 204 | 6.0 | 15.0 | 0.00 | 0.21 | 0.21 | 68 | 1008.4 |
| 20260506163042 | 65 | 201 | 10.0 | 16.0 | 0.01 | 0.21 | 0.21 | 70 | 1008.5 |
| 20260506161540 | 64 | 210 | 8.0 | 12.0 | 0.06 | 0.21 | 0.21 | 71 | 1008.6 |
| 20260506160038 | 64 | 184 | 6.0 | 10.0 | 0.06 | 0.21 | 0.21 | 72 | 1008.6 |
| 20260506154542 | 63 | 183 | 5.0 | 10.0 | 0.06 | 0.21 | 0.21 | 75 | 1008.8 |
| 20260506153036 | 63 | 359 | 7.0 | 17.0 | 0.05 | 0.20 | 0.20 | 76 | 1008.9 |
| 20260506151538 | 64 | 240 | 6.0 | 14.0 | 0.00 | 0.16 | 0.16 | 80 | 1009.1 |
| 20260506150041 | 64 | 289 | 9.0 | 16.0 | 0.00 | 0.16 | 0.16 | 78 | 1008.8 |
| 20260506144535 | 67 | 260 | 13.0 | 23.0 | 0.00 | 0.16 | 0.16 | 69 | 1008.5 |
| 20260506143036 | 67 | 174 | 8.0 | 10.0 | 0.00 | 0.16 | 0.16 | 73 | 1007.9 |
| 20260506141533 | 67 | 115 | 8.0 | 15.0 | 0.00 | 0.16 | 0.16 | 77 | 1008.3 |
| 20260506140026 | 67 | 110 | 9.0 | 14.0 | 0.00 | 0.16 | 0.16 | 71 | 1008.3 |
| 20260506134524 | 68 | 113 | 5.0 | 12.0 | 0.00 | 0.16 | 0.16 | 70 | 1008.6 |
| 20260506133020 | 68 | 160 | 7.0 | 12.0 | 0.00 | 0.16 | 0.16 | 69 | 1008.7 |
| 20260506131518 | 68 | 167 | 8.0 | 13.0 | 0.00 | 0.16 | 0.16 | 68 | 1008.8 |
| 20260506130017 | 67 | 141 | 10.0 | 17.0 | 0.00 | 0.16 | 0.16 | 69 | 1008.9 |
| 20260506124516 | 67 | 147 | 8.0 | 14.0 | 0.00 | 0.16 | 0.16 | 71 | 1009.0 |
| 20260506123015 | 67 | 133 | 10.0 | 17.0 | 0.00 | 0.16 | 0.16 | 70 | 1008.9 |
| 20260506121515 | 67 | 150 | 11.0 | 16.0 | 0.00 | 0.16 | 0.16 | 68 | 1008.9 |
| 20260506120025 | 68 | 171 | 10.0 | 18.0 | 0.00 | 0.16 | 0.16 | 66 | 1009.1 |
| 20260506114510 | 68 | 180 | 8.0 | 16.0 | 0.00 | 0.16 | 0.16 | 66 | 1009.1 |